CST,Max TemperatureF,Mean TemperatureF,Min TemperatureF,Max Dew PointF,MeanDew PointF,Min DewpointF,Max Humidity, Mean Humidity, Min Humidity, Max Sea Level PressureIn, Mean Sea Level PressureIn, Min Sea Level PressureIn, Max VisibilityMiles, Mean VisibilityMiles, Min VisibilityMiles, Max Wind SpeedMPH, Mean Wind SpeedMPH, Max Gust SpeedMPH,PrecipitationIn, CloudCover, Events, WindDirDegrees
2012-11-1,83,65,47,57,51,46,100,66,31,30.09,30.02,29.97,10,5,0,7,1,12,0.00,1,Fog,141
2012-11-2,86,73,60,64,61,56,100,69,37,30.07,30.01,29.97,10,7,0,13,5,17,0.00,3,Fog,220
2012-11-3,86,71,56,66,59,54,100,67,34,30.13,30.06,30.01,10,5,0,13,4,18,0.00,3,Fog,208
2012-11-4,78,67,56,63,60,54,93,74,54,30.13,30.08,30.03,10,10,9,17,3,22,T,3,Rain,70
2012-11-5,78,64,50,63,55,50,93,70,46,30.09,30.00,29.92,10,7,0,16,6,21,0.00,4,Fog,160
2012-11-6,65,55,45,56,49,42,100,74,48,30.11,30.05,29.97,10,7,0,15,6,25,0.00,4,Fog,320
2012-11-7,74,56,38,46,37,26,96,57,17,30.17,30.11,30.05,10,8,0,21,5,28,0.00,0,Fog,343
2012-11-8,70,55,39,42,38,35,85,58,31,30.28,30.20,30.15,10,10,10,15,4,18,0.00,0,,128
2012-11-9,77,60,43,54,45,38,89,58,27,30.24,30.17,30.11,10,10,10,14,7,20,0.00,0,,144
2012-11-10,81,66,51,58,54,49,100,71,42,30.19,30.12,30.05,10,9,6,18,10,26,0.00,1,,147
2012-11-11,75,67,59,67,63,57,93,77,60,30.09,30.03,29.99,10,7,2,22,11,28,0.37,7,Rain,153
2012-11-12,62,49,36,55,45,34,93,66,39,30.47,30.32,30.12,10,10,5,18,7,23,0.06,4,Rain,354
2012-11-13,60,47,33,33,30,27,89,60,30,30.52,30.42,30.35,10,10,10,16,6,22,0.00,0,,16
2012-11-14,63,49,34,34,31,27,85,56,27,30.41,30.35,30.29,10,10,10,15,4,18,0.00,1,,359
2012-11-15,64,46,28,38,32,26,92,60,27,30.35,30.30,30.25,10,9,6,13,4,16,0.00,0,,11
2012-11-16,66,50,33,40,36,31,96,65,34,30.37,30.33,30.28,10,9,4,13,3,23,0.00,0,,18
2012-11-17,70,51,31,38,33,29,92,58,23,30.40,30.35,30.30,10,10,7,9,2,14,0.00,0,,35
2012-11-18,70,51,31,40,34,29,89,56,23,30.36,30.31,30.26,10,10,10,9,2,13,0.00,0,,87
2012-11-19,71,54,36,47,40,31,92,62,31,30.32,30.25,30.18,10,10,9,7,1,9,0.00,0,,117
2012-11-20,76,59,42,49,44,37,89,62,35,30.25,30.19,30.13,10,10,9,10,1,14,0.00,1,,311
2012-11-21,78,61,43,53,43,37,93,58,23,30.26,30.20,30.17,10,9,6,13,2,16,0.00,0,,4
2012-11-22,76,57,37,49,41,34,92,60,27,30.25,30.19,30.14,10,10,9,12,4,15,0.00,0,,175
2012-11-23,69,58,46,58,50,42,93,77,61,30.31,30.25,30.19,10,9,5,14,4,17,T,5,,338
2012-11-24,59,46,33,38,29,25,86,56,26,30.40,30.30,30.21,10,10,10,13,4,17,0.00,0,,6
2012-11-25,69,49,28,49,35,26,96,63,29,30.19,30.12,30.04,10,10,6,12,4,15,0.00,0,,150
2012-11-26,77,64,50,66,60,48,93,79,64,30.06,30.02,29.95,10,10,9,14,7,17,T,6,Rain,160
2012-11-27,69,55,41,66,47,36,90,74,57,30.36,30.23,30.03,10,10,7,20,7,26,0.02,5,Rain-Thunderstorm,360
2012-11-28,64,47,29,39,33,28,96,63,30,30.49,30.40,30.34,10,9,5,9,2,12,0.00,0,,35
2012-11-29,67,48,29,37,31,24,92,58,24,30.38,30.30,30.22,10,10,9,10,2,13,0.00,0,,131
2012-11-30,74,57,39,53,47,35,100,75,49,30.28,30.22,30.16,10,7,0,12,4,14,0.00,3,Fog,135